Fort Dix, NJ

5:09 PM EST on February 08, 2016 (GMT -0500)
McGuire Air Force Base

Weather History for KWRI - July, 2013

Change the Weather History Date:

Sunday, July 14, 2013

  Actual Average Record
Temperature  
Mean Temperature 81 °F -  
Max Temperature 90 °F 84 °F 98 °F (1997)
Min Temperature 73 °F 63 °F 55 °F (1999)
Cooling Degree Days 16    
Growing Degree Days 31 (Base 50)    
Moisture  
Dew Point 73 °F    
Average Humidity 85    
Maximum Humidity 100    
Minimum Humidity 55    
Precipitation  
Precipitation 0.00 in - - ()
Sea Level Pressure  
Sea Level Pressure 30.30 in    
Wind  
Wind Speed 5 mph (WSW)    
Max Wind Speed 10 mph    
Max Gust Speed -    
Visibility 9 miles    
Events Rain    
Averages and records for this station are not official NWS values.
T = Trace of Precipitation, MM = Missing Value Source: NWS Daily Summary

Daily Weather History Graph

Daily Weather History Graph

Search for Another Location

Airport or City:

Trip Planner

Search our weather history database for the weather conditions in past years. The results will help you decide how hot, cold, wet, or windy it might be!

Date:

Astronomy

Jul. 14, 2013 Rise Set
Actual Time 5:41 AM EDT 8:26 PM EDT
Civil Twilight 5:09 AM EDT 8:58 PM EDT
Nautical Twilight 4:29 AM EDT 9:38 PM EDT
Astronomical Twilight 3:43 AM EDT 10:23 PM EDT
Moon 11:55 AM EDT (7/14) 11:37 PM EDT (7/14)
Length of Visible Light 15h 48m
Length of Day
14h 45m
Waxing Crescent, 35% of the Moon is Illuminated
Jul 14
Waxing Crescent
Jul 15
First Quarter
Jul 22
Full
Jul 29
Last Quarter
Aug 6
New

Hourly Weather History & Observations

Time (EDT) Temp. Heat Index Dew Point Humidity Pressure Visibility Wind Dir Wind Speed Gust Speed Precip Events Conditions
12:55 AM 73.4 °F - 73.4 °F 100% 30.28 in 10.0 mi SSW 3.5 mph - N/A   Clear
1:55 AM 73.4 °F - 73.4 °F 100% 30.28 in 10.0 mi SSW 8.1 mph - N/A   Clear
2:49 AM 73.4 °F - 73.4 °F 100% 30.27 in 10.0 mi SW 6.9 mph - N/A   Mostly Cloudy
2:52 AM 73.4 °F - 73.4 °F 100% 30.27 in 10.0 mi WSW 5.8 mph - N/A   Mostly Cloudy
2:55 AM 73.4 °F - 73.4 °F 100% 30.27 in 10.0 mi WSW 6.9 mph - N/A   Mostly Cloudy
3:35 AM 73.4 °F - 73.4 °F 100% 30.28 in 4.0 mi West 3.5 mph - N/A   Overcast
4:42 AM 75.2 °F - 73.4 °F 94% 30.29 in 10.0 mi SW 4.6 mph - N/A   Overcast
4:50 AM 75.2 °F - 73.4 °F 94% 30.29 in 10.0 mi WSW 4.6 mph - N/A   Overcast
4:55 AM 75.2 °F - 73.4 °F 94% 30.29 in 10.0 mi SW 2.3 mph - N/A   Overcast
4:56 AM 73.4 °F - 73.4 °F 100% 30.29 in 10.0 mi SSW 2.3 mph - N/A   Overcast
5:01 AM 73.4 °F - 73.4 °F 100% 30.29 in 10.0 mi SW 2.3 mph - N/A   Mostly Cloudy
5:16 AM 73.4 °F - 73.4 °F 100% 30.29 in 10.0 mi Calm Calm - N/A   Mostly Cloudy
5:20 AM 73.4 °F - 73.4 °F 100% 30.29 in 9.0 mi SSE 2.3 mph - N/A   Scattered Clouds
5:21 AM 73.4 °F - 73.4 °F 100% 30.30 in 9.0 mi SSE 2.3 mph - N/A   Mostly Cloudy
5:55 AM 73.4 °F - 73.4 °F 100% 30.30 in 3.0 mi East 2.3 mph - N/A   Mostly Cloudy
6:17 AM 73.4 °F - 73.4 °F 100% 30.31 in 5.0 mi Calm Calm - N/A Rain Light Rain
6:18 AM 73.4 °F - 73.4 °F 100% 30.31 in 5.0 mi Calm Calm - N/A   Mostly Cloudy
6:31 AM 73.4 °F - 73.4 °F 100% 30.31 in 2.5 mi SSE 3.5 mph - N/A   Mostly Cloudy
6:39 AM 73.4 °F - 73.4 °F 100% 30.31 in 2.5 mi SSE 3.5 mph - N/A   Scattered Clouds
6:48 AM 73.4 °F - 73.4 °F 100% 30.32 in 2.5 mi South 4.6 mph - N/A   Scattered Clouds
6:49 AM 73.4 °F - 73.4 °F 100% 30.32 in 3.0 mi South 4.6 mph - N/A   Scattered Clouds
6:55 AM 75.2 °F - 73.4 °F 94% 30.32 in 4.0 mi South 4.6 mph - N/A   Scattered Clouds
7:24 AM 75.2 °F - 75.2 °F 100% 30.32 in 10.0 mi South 3.5 mph - N/A   Partly Cloudy
7:39 AM 75.2 °F - 75.2 °F 100% 30.33 in 10.0 mi South 3.5 mph - N/A   Mostly Cloudy
7:55 AM 75.2 °F - 75.2 °F 100% 30.33 in 10.0 mi SSW 4.6 mph - N/A   Overcast
7:57 AM 77.0 °F - 75.2 °F 94% 30.33 in 10.0 mi SSW 4.6 mph - N/A   Overcast
8:15 AM 77.0 °F - 75.2 °F 94% 30.33 in 10.0 mi WSW 5.8 mph - N/A   Overcast
8:21 AM 77.0 °F - 73.4 °F 89% 30.33 in 10.0 mi WSW 8.1 mph - N/A   Overcast
8:28 AM 77.0 °F - 73.4 °F 89% 30.33 in 10.0 mi West 8.1 mph - N/A   Overcast
8:48 AM 77.0 °F - 73.4 °F 89% 30.33 in 10.0 mi West 5.8 mph - N/A   Overcast
8:55 AM 77.0 °F - 73.4 °F 89% 30.33 in 10.0 mi WNW 5.8 mph - N/A   Overcast
9:08 AM 78.8 °F - 73.4 °F 83% 30.33 in 10.0 mi WNW 5.8 mph - N/A   Overcast
9:19 AM 80.6 °F 85.4 °F 73.4 °F 79% 30.32 in 10.0 mi WNW 8.1 mph - N/A   Mostly Cloudy
9:21 AM 80.6 °F 85.4 °F 73.4 °F 79% 30.32 in 10.0 mi WNW 5.8 mph - N/A   Scattered Clouds
9:26 AM 80.6 °F 85.4 °F 73.4 °F 79% 30.32 in 10.0 mi Variable 5.8 mph - N/A   Mostly Cloudy
9:30 AM 80.6 °F 85.4 °F 73.4 °F 79% 30.32 in 10.0 mi WNW 6.9 mph - N/A   Scattered Clouds
9:45 AM 80.6 °F 85.4 °F 73.4 °F 79% 30.32 in 10.0 mi West 6.9 mph - N/A   Mostly Cloudy
9:50 AM 80.6 °F 85.4 °F 73.4 °F 79% 30.32 in 10.0 mi WNW 8.1 mph - N/A   Mostly Cloudy
9:55 AM 80.6 °F 85.4 °F 73.4 °F 79% 30.32 in 10.0 mi NW 8.1 mph - N/A   Mostly Cloudy
10:32 AM 82.4 °F 88.2 °F 73.4 °F 74% 30.32 in 10.0 mi West 9.2 mph - N/A   Mostly Cloudy
10:40 AM 82.4 °F 88.2 °F 73.4 °F 74% 30.32 in 10.0 mi WNW 8.1 mph - N/A   Scattered Clouds
10:45 AM 82.4 °F 88.2 °F 73.4 °F 74% 30.32 in 10.0 mi WNW 8.1 mph - N/A Rain Light Rain
10:46 AM 82.4 °F 88.2 °F 73.4 °F 74% 30.32 in 10.0 mi WNW 8.1 mph - N/A Rain Light Rain
10:49 AM 82.4 °F 88.2 °F 73.4 °F 74% 30.32 in 10.0 mi WNW 8.1 mph - N/A   Mostly Cloudy
10:55 AM 82.4 °F 88.2 °F 73.4 °F 74% 30.32 in 10.0 mi WNW 4.6 mph - N/A   Mostly Cloudy
11:02 AM 82.4 °F 88.2 °F 73.4 °F 74% 30.32 in 10.0 mi West 6.9 mph - N/A   Scattered Clouds
11:05 AM 82.4 °F 88.2 °F 73.4 °F 74% 30.32 in 10.0 mi West 8.1 mph - N/A   Mostly Cloudy
11:28 AM 84.2 °F 90.9 °F 73.4 °F 70% 30.31 in 10.0 mi West 8.1 mph - N/A   Scattered Clouds
11:55 AM 86.0 °F 93.4 °F 73.4 °F 66% 30.31 in 10.0 mi West 5.8 mph - N/A   Partly Cloudy
12:55 PM 86.0 °F 93.4 °F 73.4 °F 66% 30.30 in 10.0 mi West 8.1 mph - N/A   Scattered Clouds
1:55 PM 86.0 °F 93.4 °F 73.4 °F 66% 30.29 in 10.0 mi WSW 6.9 mph - N/A   Partly Cloudy
2:55 PM 89.6 °F 98.2 °F 73.4 °F 59% 30.28 in 10.0 mi Variable 5.8 mph - N/A   Partly Cloudy
3:55 PM 89.6 °F 96.2 °F 71.6 °F 55% 30.27 in 10.0 mi West 6.9 mph - N/A   Clear
4:53 PM 89.6 °F 96.2 °F 71.6 °F 55% 30.26 in 10.0 mi WSW 8.1 mph - N/A Rain Light Rain
4:55 PM 89.6 °F 96.2 °F 71.6 °F 55% 30.26 in 10.0 mi SW 10.4 mph - N/A Rain Light Rain
5:03 PM 89.6 °F 96.2 °F 71.6 °F 55% 30.25 in 10.0 mi West 6.9 mph - N/A   Partly Cloudy
5:55 PM 87.8 °F 93.8 °F 71.6 °F 58% 30.24 in 10.0 mi SW 8.1 mph - N/A   Clear
6:55 PM 86.0 °F 93.4 °F 73.4 °F 66% 30.24 in 10.0 mi WSW 8.1 mph - N/A   Clear
7:55 PM 82.4 °F 88.2 °F 73.4 °F 74% 30.24 in 10.0 mi SSW 5.8 mph - N/A   Clear
8:55 PM 80.6 °F 85.4 °F 73.4 °F 79% 30.25 in 10.0 mi SSW 4.6 mph - N/A   Clear
9:58 PM 78.4 °F - 73.2 °F 84% 30.26 in 10.0 mi SW 9.2 mph - N/A   Clear
10:58 PM 77.2 °F - 73.8 °F 89% 30.26 in 10.0 mi SW 9.2 mph - N/A   Clear
11:58 PM 75.7 °F - 71.8 °F 87% 30.26 in 10.0 mi SW 8.1 mph - N/A   Clear